Wind_Speed
42 38 38 39 40 37 29 30 26 23 13 16 29 29 25 22 18 17 17 15 16 16 14 15 13 16 12 12 11 7 8 11 10 17 16 16 21 23 17 18 24 26 27
42 39 39 41 41 42 36 34 31 28 25 18 25 26 27 24 22 21 21 21 21 16 20 19 18 13 17 15 13 13 12 12 14 17 19 22 21 20 26 29 26 20 21
40 40 37 38 41 39 39 36 32 31 32 26 25 27 26 25 22 23 24 23 22 19 19 22 18 17 17 18 17 16 16 15 15 18 22 23 25 24 26 15 21 16 15
41 40 38 39 38 40 39 44 33 34 32 32 28 27 27 26 25 24 25 25 24 22 22 22 22 22 22 21 21 21 21 21 21 21 22 23 25 25 12 23 25 24 29
40 40 40 39 37 34 37 38 43 34 39 39 33 32 30 30 29 28 28 28 28 26 25 26 23 24 24 24 25 25 24 24 24 23 20 17 22 25 28 25 24 28 23
42 40 38 36 37 36 34 35 40 43 34 40 40 41 38 34 33 32 31 31 30 30 30 28 28 24 26 28 29 25 23 21 23 25 28 25 28 30 27 25 24 20 5
38 39 39 39 37 39 36 35 35 39 40 36 37 38 38 39 35 33 33 32 33 33 32 32 31 30 31 31 30 28 29 31 32 33 32 33 31 31 27 26 23 20 19
30 35 39 38 39 37 37 37 35 33 35 34 35 36 36 37 38 36 34 35 36 36 35 35 33 32 31 29 28 29 30 31 33 33 34 35 35 30 26 27 27 23 21
27 34 36 39 36 36 38 37 36 34 32 35 34 33 36 36 37 38 36 37 37 40 39 38 36 36 36 33 32 33 35 36 34 32 32 31 30 26 24 26 25 21 15
25 22 37 40 39 39 39 38 36 36 36 31 32 36 37 38 36 37 37 39 38 37 37 40 40 39 37 33 30 30 33 39 36 34 30 26 24 24 21 22 24 25 16
28 22 28 38 41 40 38 36 36 34 32 33 32 32 33 37 37 39 39 39 36 32 35 34 41 43 41 40 38 39 41 36 34 28 25 23 21 22 22 24 23 23 21
29 26 20 36 36 33 36 34 34 33 32 31 31 30 32 34 37 39 40 41 42 36 34 35 36 36 34 31 31 34 34 36 36 32 28 26 25 27 26 22 19 19 17
31 29 23 33 36 32 34 33 31 32 29 30 28 29 29 30 34 38 40 41 41 44 39 35 33 28 24 26 25 22 22 30 35 32 31 33 30 26 20 20 18 16 16
30 34 24 29 30 29 31 32 31 31 31 29 29 29 29 31 29 32 39 42 41 42 45 40 38 34 30 29 25 21 19 21 24 27 29 28 22 18 20 20 18 18 16
29 31 20 18 29 31 31 32 32 33 34 31 30 29 28 27 33 35 35 40 42 42 41 40 30 32 32 33 33 36 32 26 23 24 23 22 19 19 20 20 20 20 18
24 24 28 16 12 24 29 26 28 33 34 37 34 31 29 33 28 35 41 39 37 35 32 25 26 26 25 26 28 29 28 28 26 25 25 24 20 21 21 18 21 24 23
23 27 28 26 16 12 16 24 22 25 35 35 36 36 36 31 39 36 34 40 41 37 24 27 25 25 27 27 27 25 24 25 27 25 22 21 20 21 20 19 21 23 23
21 20 23 22 20 16 13 12 22 22 20 28 34 37 40 41 29 29 31 26 28 34 28 27 26 26 26 26 26 27 24 22 23 23 22 21 21 23 20 21 21 23 22
19 18 20 26 26 20 13 10 17 23 25 25 27 28 28 30 24 18 16 17 25 25 25 23 23 23 24 24 22 22 24 23 22 20 23 24 23 24 21 19 20 23 22
16 15 13 15 21 21 17 10 5 12 21 19 22 30 28 25 21 20 19 18 16 19 21 24 24 27 26 27 26 26 27 25 23 21 22 23 24 24 20 20 21 20 24
23 23 12 10 12 17 19 16 17 15 1 12 10 12 19 24 19 17 14 16 16 16 14 15 17 17 14 16 17 28 27 28 26 24 20 19 18 19 19 18 22 24 24
16 17 19 11 9 12 16 21 23 24 21 20 17 21 16 21 23 24 23 22 20 15 13 12 14 13 13 10 8 3 9 14 16 16 18 17 15 15 15 15 19 22 23
15 15 15 16 17 16 20 18 24 28 23 26 21 24 25 27 25 23 21 18 17 17 18 14 16 16 13 16 14 12 11 7 4 3 9 16 16 17 16 16 18 21 21
16 16 13 14 19 19 18 18 15 25 22 22 25 22 28 25 26 23 20 18 18 18 18 20 19 15 17 15 14 14 15 14 8 7 4 4 14 17 18 18 20 21 24
20 19 19 20 20 19 20 22 21 21 20 21 24 18 20 23 20 25 20 21 20 19 19 22 19 17 19 15 17 18 17 15 14 14 11 9 10 9 18 23 25 27 25
23 22 21 23 22 22 23 23 21 20 24 23 22 22 20 22 23 25 20 26 21 18 26 19 17 20 16 17 19 22 22 22 19 18 15 16 17 15 16 10 13 16 16
Wind_Direction
193 197 203 208 206 210 213 211 211 211 206 210 202 201 204 207 212 219 226 232 235 237 235 236 250 261 268 274 274 293 304 276 263 282 295 300 305 309 305 300 299 298 299
193 194 198 205 208 211 209 213 215 215 212 192 196 201 203 206 212 218 225 233 236 244 242 243 244 255 250 262 272 276 285 281 284 290 304 305 305 305 304 307 318 327 327
190 193 196 200 206 209 212 211 217 218 220 219 204 200 204 208 217 222 228 234 237 237 241 241 246 244 245 254 267 270 279 284 290 295 297 299 298 304 314 328 334 346 338
189 191 195 199 203 207 210 216 212 218 216 219 216 213 212 214 221 226 228 232 238 239 240 241 244 248 254 257 259 260 266 271 276 282 287 292 295 300 308 327 326 324 325
188 193 196 199 201 203 205 212 219 216 221 221 218 220 222 222 224 225 230 232 234 241 243 244 249 248 251 256 258 260 262 264 267 272 278 285 289 297 305 312 310 321 326
189 194 196 195 198 202 204 205 215 217 217 222 224 228 229 227 230 231 231 231 235 237 241 244 244 249 252 255 255 259 261 258 260 267 275 278 283 291 299 301 308 312 327
190 192 194 195 196 200 202 204 209 214 217 219 221 223 227 232 230 229 230 233 234 238 241 246 250 249 250 254 258 261 261 261 262 268 270 275 280 289 296 294 292 291 287
210 192 193 193 197 199 200 204 208 210 213 216 219 221 223 227 232 231 231 232 238 240 242 244 247 252 254 254 259 265 267 268 266 266 267 271 277 286 286 289 287 288 285
225 191 192 194 194 196 200 205 206 209 212 215 218 220 221 226 230 233 230 233 239 241 244 246 246 249 254 255 255 260 265 269 270 270 274 279 283 286 288 282 274 269 280
345 215 192 193 195 196 200 202 205 208 214 215 217 221 226 228 230 232 232 233 238 242 245 245 246 248 251 252 251 253 259 265 270 274 275 272 273 278 278 270 267 257 251
328 319 210 196 197 200 199 199 202 206 211 216 221 223 225 229 231 235 232 231 231 237 240 243 247 250 253 257 260 259 259 269 270 273 276 276 276 278 277 277 266 259 259
332 309 268 205 200 198 196 196 199 202 208 214 218 224 226 228 232 235 237 233 235 231 234 240 244 251 257 258 257 257 261 264 262 265 266 267 269 276 283 271 254 265 257
334 321 286 210 202 196 194 196 196 199 205 212 214 219 224 226 228 232 238 239 238 237 238 240 243 247 251 253 256 260 264 262 259 251 253 260 270 281 282 267 259 254 235
342 331 281 203 196 195 194 196 198 201 207 211 213 217 221 225 226 225 231 237 240 240 241 243 245 248 250 255 259 260 263 256 250 250 254 263 274 273 261 247 248 225 219
357 344 346 199 198 201 201 197 202 208 209 212 217 217 219 223 223 225 226 230 234 238 241 239 238 241 247 253 258 261 262 260 247 249 251 256 260 263 264 257 241 225 222
4 348 347 359 0 232 220 214 215 215 218 221 220 220 225 228 233 233 233 236 242 240 230 221 228 232 236 244 248 253 248 244 243 247 250 251 253 260 261 250 236 225 228
1 358 348 353 4 346 253 229 225 228 220 224 226 226 229 237 232 238 238 235 236 233 215 214 218 222 231 238 243 245 244 240 246 244 236 240 253 259 259 243 235 231 233
353 353 350 339 340 344 307 289 239 222 217 223 220 226 225 233 233 235 238 235 214 213 210 210 212 221 232 237 240 242 236 219 221 239 249 251 251 246 245 245 254 250 238
351 350 343 346 344 337 334 278 259 228 211 206 211 213 208 196 193 194 193 197 193 201 207 211 223 227 230 238 244 236 228 233 247 248 252 253 242 237 239 248 258 262 250
340 345 342 340 334 353 343 14 21 270 215 215 203 202 197 199 198 204 211 215 212 218 221 228 237 241 246 251 249 245 245 247 253 248 248 246 235 231 240 257 261 253 242
342 331 312 323 340 354 353 18 30 32 3 106 106 168 211 199 198 200 217 225 234 250 251 259 266 271 272 270 273 251 247 254 251 246 228 239 224 226 244 263 266 264 247
12 8 25 27 23 12 32 32 40 42 41 57 75 72 109 104 82 80 76 83 90 92 94 84 82 63 42 36 53 235 244 235 226 237 250 239 239 242 244 262 264 261 245
14 14 25 31 31 44 44 39 49 57 34 38 42 62 67 75 83 77 72 70 65 63 57 76 86 61 34 31 34 42 38 15 351 282 255 239 245 248 256 259 260 256 248
40 30 26 42 37 42 45 46 54 67 56 63 52 39 57 60 74 81 77 64 67 64 61 45 57 60 53 14 14 24 13 357 342 318 315 255 249 257 258 261 259 252 248
47 44 41 42 45 48 50 48 46 66 74 61 74 71 70 57 60 64 62 71 57 54 56 48 36 42 46 17 14 12 359 345 334 320 306 299 283 275 271 263 261 258 256
49 50 50 52 48 51 59 59 51 52 60 65 77 75 74 72 66 66 59 64 66 62 60 51 44 51 43 32 26 24 14 356 340 326 315 307 309 291 291 285 272 249 235
Height
786 792 799 804 808 813 817 821 824 827 831 834 837 842 845 848 850 852 854 856 858 859 860 861 862 862 862 863 864 863 863 863 862 861 860 859 857 855 852 850 848 846 843
779 786 791 798 803 807 811 816 820 823 827 832 835 839 842 844 846 848 851 853 855 857 858 859 860 861 861 861 861 861 861 861 860 858 857 856 855 852 849 846 843 841 838
772 779 785 790 795 801 806 810 815 819 823 827 831 834 837 840 842 844 847 849 851 853 854 855 856 858 858 858 859 859 859 858 858 857 854 853 851 848 846 843 841 839 837
765 771 777 782 787 793 799 805 810 815 819 822 826 829 832 835 837 840 843 845 846 848 850 851 852 853 854 855 856 856 856 855 854 853 852 850 848 845 844 841 838 837 833
758 763 767 774 781 787 792 797 804 808 812 816 820 823 826 830 832 835 838 840 842 844 845 846 847 848 849 850 851 851 852 851 850 850 848 847 844 842 841 839 836 833 831
748 755 763 768 774 780 785 791 796 801 805 809 813 817 820 823 826 829 832 835 837 838 839 841 842 844 844 845 846 846 847 847 846 845 844 842 839 838 838 836 834 831 829
740 748 755 760 766 771 778 784 788 792 797 801 805 810 813 816 820 823 826 829 831 833 834 835 836 837 838 839 840 840 840 840 840 839 838 836 834 834 833 832 831 829 827
741 741 747 752 757 764 771 775 782 787 791 795 799 802 806 808 812 817 821 824 825 826 827 829 830 831 832 834 834 834 833 833 833 833 832 830 830 829 829 827 826 825 823
736 733 739 744 750 757 762 768 774 780 784 787 792 796 798 802 805 810 815 817 818 819 820 822 824 824 825 828 829 828 827 825 826 826 825 824 824 824 823 821 821 821 819
733 731 730 736 741 746 752 759 766 772 775 780 784 787 790 793 798 802 807 810 811 812 813 814 816 816 817 820 821 821 820 816 818 817 817 817 817 817 817 816 815 815 816
728 728 728 728 732 737 744 752 758 764 769 773 777 780 784 787 790 793 798 801 802 804 805 805 806 807 810 812 813 812 809 810 810 811 811 811 811 811 810 810 810 809 809
726 723 723 722 727 732 738 743 749 756 761 765 769 773 776 779 781 784 787 791 793 795 795 795 797 799 801 803 803 802 803 804 805 805 805 805 805 805 803 803 804 804 804
722 719 715 716 720 725 731 736 742 748 752 757 761 764 767 770 772 775 777 781 784 786 787 788 790 792 795 795 795 796 796 796 797 798 798 797 797 798 799 799 799 799 801
721 714 710 709 714 720 725 730 734 739 744 747 751 754 758 761 763 765 767 771 774 777 779 781 783 786 788 788 788 788 789 789 789 789 789 791 793 793 793 794 795 795 796
723 719 712 707 710 714 718 721 725 730 734 738 742 746 750 751 752 756 758 760 762 765 769 773 777 778 779 779 780 780 782 783 783 783 784 786 787 788 788 789 790 791 792
726 726 718 708 710 713 715 718 721 723 727 730 735 739 742 744 747 748 751 751 754 758 762 766 767 769 770 771 771 771 772 774 775 777 778 779 780 782 782 784 785 784 786
723 723 719 711 708 716 714 715 717 718 720 725 729 732 735 736 739 741 743 745 748 751 754 755 757 759 761 762 763 764 764 766 768 769 771 773 775 776 777 777 777 779 779
724 723 724 724 718 711 711 711 713 714 715 718 721 724 725 728 732 733 735 738 739 743 745 747 749 752 754 755 756 757 758 760 762 763 764 766 769 770 771 772 773 773 772
727 725 723 720 715 715 710 708 709 709 707 709 714 716 719 724 727 730 731 732 733 736 739 742 745 747 749 749 751 752 752 753 756 757 757 758 760 762 764 765 765 766 768
730 728 726 725 727 717 715 708 703 704 704 705 707 707 714 720 722 725 728 731 733 735 737 739 741 744 745 746 746 746 746 748 749 751 752 753 753 756 759 759 760 761 761
729 728 727 726 726 725 717 712 706 705 704 701 707 707 708 715 719 720 726 729 731 733 734 736 738 740 744 743 741 740 740 741 744 745 747 748 748 750 753 754 755 755 755
732 731 727 728 727 724 718 712 709 708 709 705 708 710 714 705 719 723 724 728 729 729 731 728 731 736 740 741 733 734 736 735 739 741 743 744 744 745 747 748 749 749 750
734 733 730 728 727 723 719 724 718 711 719 716 719 714 716 717 718 723 726 729 730 731 732 734 727 729 743 742 741 738 733 735 736 738 740 741 740 741 742 741 742 743 745
737 737 735 730 731 729 728 726 726 718 722 722 724 731 720 728 727 729 732 734 732 733 735 736 735 739 728 746 745 736 736 735 736 737 737 737 737 737 737 737 737 737 737
742 741 738 735 734 734 733 732 729 729 726 721 720 733 734 730 737 729 740 731 734 735 734 732 741 737 729 748 742 736 735 739 738 737 735 734 734 734 735 732 731 732 732
749 747 744 740 740 740 738 738 740 739 733 735 739 740 735 733 737 734 740 724 738 748 724 747 752 737 746 747 743 739 738 737 735 734 731 731 732 730 731 728 728 726 724